{"data":{"norad_id":59125,"epoch":"2026-09-21T21:25:03.297792Z","epoch_age_seconds":137727,"freshness":"FRESH","line1":"1 59125U 24043AD  26264.89239928  .00006028  00000+0  16702-3 0  9999","line2":"2 59125  97.5770  48.6981 0007598 243.3852 116.6614 15.37331873142116","mean_motion":15.37331873,"eccentricity":0.0007598,"inclination_deg":97.577,"raan_deg":48.6981,"arg_perigee_deg":243.3852,"mean_anomaly_deg":116.6614,"bstar":0.00016702,"rev_number":14211,"period_min":93.668779350157,"perigee_km":448.81188787443,"apogee_km":459.19400773912,"semimajor_km":6832.1399478068,"source":"CELESTRAK","updated_at":"2026-09-23T09:00:19.178142Z"}}